Location: ?????????
(38.4921°N, 22.9787°E)
Time: 03:17:24
(UTC+00:00)

COSMO-SKYMED 1 - Pass Details

Date: 08 December 2025
Orbit: 578 x 580 km, 97.9° (Epoch: 15 January)

Event Time Altitude Azimuth Distance (km) Brightness Sun altitude
Rises 04:15:30 0° 177° (S) 2,783 6.2 -14.7°
Reaches altitude 10° 04:17:40 10° 181° (S) 1,889 5.3 -14.3°
Maximum altitude 04:21:41 55° 259° (W) 704 2.5 -13.6°
Drops below altitude 10° 04:25:44 10° 338° (NNW) 1,903 4.7 -12.8°
Enters shadow 04:26:22 - 340° (NNW) 2,160 5.0 -12.7°
